Regional Weather Roundup
Issued by NWS

Home | Current Version | Previous Version | Text Only | Print | Product List | Glossary Off
Versions: 1 2 3 4 5 6 7 8 9 10 11 12 13 14 15 16 17 18 19 20 21 22 23 24 25 26 27 28 29 30 31 32 33 34 35 36 37 38 39 40 41 42 43 44 45 46 47 48 49 50

000
ASUS43 KMKX 221211
RWRWI

WISCONSIN REGIONAL WEATHER ROUNDUP
NATIONAL WEATHER SERVICE MILWAUKEE/SULLIVAN WI
700 AM CDT FRI AUG 22 2014

NOTE: "FAIR" INDICATES FEW OR NO CLOUDS BELOW 12,000 FEET WITH NO
SIGNIFICANT WEATHER AND/OR OBSTRUCTIONS TO VISIBILITY.

WIZ001-002-006>008-014>016-023>028-221300-
NORTHWEST WISCONSIN

CITY           SKY/WX    TMP DP  RH WIND       PRES   REMARKS
SUPERIOR ARPT  LGT RAIN  60  60 100 NE12      29.95R VSB 3/4
6HR MIN TEMP:  60; 6HR MAX TEMP:  61; 6HR PCP:  0.09;

ASHLAND        FOG       65  64  97 NE6       29.94R VSB 1/2
6HR MIN TEMP:  65; 6HR MAX TEMP:  66;

HAYWARD        FOG       68  68 100 NE5       29.92S VSB 3/4
6HR MIN TEMP:  68; 6HR MAX TEMP:  69;

SIREN          FOG       64  63  97 NW5       29.93R VSB 1/2
6HR MIN TEMP:  63; 6HR MAX TEMP:  71;

RICE LAKE      FOG       70  69  96 CALM      29.91S VSB 1/2
6HR MIN TEMP:  69; 6HR MAX TEMP:  71; 6HR PCP:  0.01;

LADYSMITH      FOG       69  68  97 E3        29.93S VSB 1/2
6HR MIN TEMP:  69; 6HR MAX TEMP:  70;

EAU CLAIRE     CLOUDY    71  71 100 CALM      29.88S FOG
6HR MIN TEMP:  69; 6HR MAX TEMP:  73;

MENOMONIE      CLOUDY    72  71  98 W6        29.89R FOG
6HR MIN TEMP:  70; 6HR MAX TEMP:  72;

NEW RICHMOND   FOG       67  67 100 NW5       29.91S VSB 1/4
6HR MIN TEMP:  67; 6HR MAX TEMP:  71;

OSCEOLA        CLOUDY    66  66 100 CALM      29.94S FOG
6HR MIN TEMP:  66; 6HR MAX TEMP:  71;

$$

WIZ003>005-009-010-017-018-221300-
NORTH CENTRAL WISCONSIN

CITY           SKY/WX    TMP DP  RH WIND       PRES   REMARKS
WOODRUFF       FOG       64  62  92 CALM      29.97R VSB 3/4
6HR MIN TEMP:  64; 6HR MAX TEMP:  65;

RHINELANDER    FOG       63  63 100 E6        29.97S VSB 1/2
6HR MIN TEMP:  63; 6HR MAX TEMP:  63; 6HR PCP:  0.02;

EAGLE RIVER    CLOUDY    64  64 100 SE5       29.97S FOG
6HR MIN TEMP:  63; 6HR MAX TEMP:  64; 6HR PCP:  0.04;

LAND O LAKES   CLOUDY    64  64 100 CALM      29.99S FOG
6HR MIN TEMP:  63; 6HR MAX TEMP:  64; 6HR PCP:  0.31;

PHILLIPS       FOG       65  65 100 CALM      29.94R VSB 1
6HR MIN TEMP:  64; 6HR MAX TEMP:  65;

TOMAHAWK       FOG       64  63  96 CALM      29.96S VSB 1/2
6HR MIN TEMP:  64; 6HR MAX TEMP:  64;

MEDFORD        FOG       66  66 100 SE5       29.94R VSB 1/4
6HR MIN TEMP:  65; 6HR MAX TEMP:  66;

MERRILL        FOG       65  65 100 CALM      29.95S VSB 3/4
6HR MIN TEMP:  65; 6HR MAX TEMP:  65;

$$

WIZ029-030-035-036-043>047-221300-
CENTRAL WISCONSIN

CITY           SKY/WX    TMP DP  RH WIND       PRES   REMARKS
WAUSAU         FOG       65  65 100 E6        29.93S VSB 3/4
6HR MIN TEMP:  65; 6HR MAX TEMP:  65; 6HR PCP: TRACE;

MOSINEE        FOG       66  66 100 E5        29.95R VSB 1/2
MARSHFIELD     FOG       70  69  97 E3        29.93R VSB 1/4
6HR MIN TEMP:  70; 6HR MAX TEMP:  72;

STEVENS POINT  FOG       66  66 100 CALM      29.94S VSB 3/4
6HR MIN TEMP:  65; 6HR MAX TEMP:  66;

WAUPACA        FOG       69  68  94 CALM      29.94R VSB<1/4
6HR MIN TEMP:  69; 6HR MAX TEMP:  71;

WAUTOMA        FOG       72  72 100 CALM      29.93R VSB<1/4
6HR MIN TEMP:  70; 6HR MAX TEMP:  71;

WISC RAPIDS    CLOUDY    71  70  96 E3        29.94R FOG
6HR MIN TEMP:  70; 6HR MAX TEMP:  71;

CAMP DOUGLAS   CLOUDY    70  70 100 SE5       29.91S FOG
6HR MIN TEMP:  67; 6HR MAX TEMP:  70;

$$

WIZ011>013-019>022-031-037>040-048>050-221300-
NORTHEAST WISCONSIN

CITY           SKY/WX    TMP DP  RH WIND       PRES   REMARKS
ANTIGO         FOG       63  63 100 E3        29.97S VSB 1/4
6HR MIN TEMP:  62; 6HR MAX TEMP:  63;

STURGEON BAY   CLOUDY    66  63  88 SE5       29.97S VSB 1/4
6HR MIN TEMP:  64; 6HR MAX TEMP:  66;

GREEN BAY      CLOUDY    67  66  97 NE3       29.94F FOG
6HR MIN TEMP:  66; 6HR MAX TEMP:  67;

MANITOWOC      FOG       67  66  97 SE3       29.95F VSB 1/4
                                      6HR PCP:  0.01;

APPLETON         N/A     68  66  94 VRB5      29.94S FOG
CLINTONVILLE   FOG       64  64 100 NE3       29.94S VSB<1/4
OSHKOSH        MOCLDY    70  69  97 S5        29.92S FOG
6HR MIN TEMP:  69; 6HR MAX TEMP:  71;

$$

WIZ032>034-041-042-053>061-221300-
SOUTHWEST WISCONSIN

CITY           SKY/WX    TMP DP  RH WIND       PRES   REMARKS
LA CROSSE      CLOUDY    74  71  91 S6        29.88R
6HR MIN TEMP:  74; 6HR MAX TEMP:  76;

SPARTA         CLOUDY    67  66  95 CALM      29.91R
6HR MIN TEMP:  65; 6HR MAX TEMP:  69;

VIROQUA        CLOUDY    69  69 100 SE5       29.92R VSB<1/4
6HR MIN TEMP:  68; 6HR MAX TEMP:  71;

BOSCOBEL       FOG       70  69  97 CALM      29.90R VSB 3/4
6HR MIN TEMP:  69; 6HR MAX TEMP:  71;

PRAIRIE DU CHI CLOUDY    71  69  95 CALM      29.89R FOG
6HR MIN TEMP:  69; 6HR MAX TEMP:  72;

PLATTEVILLE    FAIR      70  69  96 E7        29.93R VSB 3/4
6HR MIN TEMP:  70; 6HR MAX TEMP:  73;

$$

WIZ056-057-062-063-064-067-068-221300-
SOUTH CENTRAL WISCONSIN

CITY           SKY/WX    TMP DP  RH WIND       PRES   REMARKS
BARABOO/DELLS  CLOUDY    71  69  94 CALM      29.92S FOG
6HR MIN TEMP:  67; 6HR MAX TEMP:  71;

LONE ROCK      CLOUDY    75  71  87 CALM      29.91R FOG
6HR MIN TEMP:  71; 6HR MAX TEMP:  75;

WATERTOWN      FOG       71  71 100 E3        29.92S VSB<1/4
6HR MIN TEMP:  70; 6HR MAX TEMP:  71;

MADISON        CLOUDY    73  72  96 E5        29.91F FOG
6HR MIN TEMP:  72; 6HR MAX TEMP:  74;

MIDDLETON      CLOUDY    73  73 100 CALM      29.92S
6HR MIN TEMP:  69; 6HR MAX TEMP:  74;

MONROE         FOG       72  72 100 SE8       29.93R VSB<1/4
JANESVILLE     FOG       73  72  94 SE6       29.92R VSB 1
$$

WIZ051-052-058>065-066-070>072-221300-
SOUTHEAST WISCONSIN

CITY           SKY/WX    TMP DP  RH WIND       PRES   REMARKS
MILWAUKEE      FOG       71  69  93 CALM      29.93S VSB 1/4
6HR MIN TEMP:  70; 6HR MAX TEMP:  71;

WAUKESHA       FOG       68  68 100 CALM      29.94R VSB 1/4
MILWAUKEE/TIMM FOG       70  66  88 CALM      29.94R VSB 3/16
RACINE         FOG       70  69  97 CALM      29.95R VSB 1/2
6HR MIN TEMP:  69; 6HR MAX TEMP:  71;

BURLINGTON     FOG       69  69  99 CALM      29.94R VSB<1/4
6HR MIN TEMP:  68; 6HR MAX TEMP:  69;

KENOSHA        FOG       70  70 100 SE3       29.94R VSB 3/4
6HR MIN TEMP:  69; 6HR MAX TEMP:  71; 6HR PCP: TRACE;

FOND DU LAC    CLOUDY    70  67  90 CALM      29.93S
6HR MIN TEMP:  69; 6HR MAX TEMP:  70;

SHEBOYGAN      FOG       67  66  97 E3        29.94S VSB 1/4
6HR MIN TEMP:  67; 6HR MAX TEMP:  67;

WEST BEND      FOG       68  64  88 CALM      29.95R VSB 1/4
JUNEAU         HAZE      71  47  42 E5        29.94S VSB<1/4
6HR MIN TEMP:  69; 6HR MAX TEMP:  71;

$$

LSZ147-162-221300-
LAKE SUPERIOR

STATION/POSITION TIME  TEMP    WIND        PRES    WAVE
                       AIR SEA DIR/SP/G            HT/PER
                 (UTC) (F)     (DEG/KT/KT) (MB)    (FT/S)
W MID LAKE BUOY  1150   57 59   50/ 16/ 17 1014.2R   2/ 4
DEVILS ISLAND    1200   58      60/ 16/ 18 1014.1R
PORT WING        1100   59      30/  9/ 11 1013.5R
SAXON HARBOR     1100   65        CALM     1013.2R
$$

LMZ867-665-643>646-221300-
LAKE MICHIGAN

STATION/POSITION TIME  TEMP    WIND        PRES    WAVE
                       AIR SEA DIR/SP/G            HT/PER
                 (UTC) (F)     (DEG/KT/KT) (MB)    (FT/S)
N MID LAKE BUOY  1150   65 64  140/  4/  6 1014.4R   1
NORTHPORT PIER   1100   65     170/  2/  4 1014.2R
SISTER BAY       1011   64     130/  6/ 10   N/A
KEWAUNEE LAKESHO 1100   65     170/  4/  5 1013.6R
SHEBOYGAN LAKESH 1200   67 65   60/  6/  6 1014.0F
ATWATER BUOY     1200   69     300/  2/  2 1014.4R
MILWAUKEE LAKESH 1100   69        CALM       N/A
S MID LAKE BUOY  1150   69 68  150/  6/  6 1013.1S   0
KENOSHA   LAKESH 1200   71        CALM     1013.5R
$$

TC  - TEMPERATURE IN CELSIUS
VSB - VISIBILITY IN STATUTE MILES
WCI - WIND CHILL INDEX
HX  - HEAT INDEX




USA.gov is the U.S. government's official web portal to all federal, state and local government web resources and services.